Location: Edmonton
(53.5500°N, 113.5000°W)
Time: 01:59:14
(UTC-06:00)

Daily predictions for brighter satellites

Satellite Brightness Start Highest point End
(mag) Time Altitude Azimuth Time Altitude Azimuth Time Altitude Azimuth
Cosmos 1346 Rocket 4.3 00:01:35 10° SW 00:05:12 35° WNW 00:08:52 10° N
Terra 2.9 00:01:40 11° SSW 00:05:51 38° W 00:10:19 10° NNW
USA 238 DEB 4.1 00:01:11 10° SSW 00:07:48 45° ESE 00:14:26 10° NE
USA 238 4.1 00:01:18 10° S 00:07:55 44° ESE 00:14:32 10° NE
Cosmos 2084 4.5 00:05:05 10° WNW 00:08:45 32° SW 00:11:07 18° S
Cosmos 1697 Rocket 4.4 00:05:09 10° NNW 00:10:02 28° NE 00:14:54 10° E
Cosmos 1707 3.7 00:10:40 20° SE 00:12:45 34° E 00:16:19 10° NNE
CZ-4C R/B 3.7 00:12:00 15° SE 00:14:00 17° ESE 00:17:45 10° ENE
H-2A R/B 3.8 00:11:19 10° NE 00:14:23 22° E 00:16:03 17° SE
Cosmos 1741 Rocket 4.3 00:12:54 17° S 00:16:46 52° ESE 00:21:57 10° NNE
Cosmos 1842 4.2 00:14:50 10° SSW 00:18:38 45° WNW 00:22:26 10° N
Cosmos 2221 2.8 00:14:39 10° N 00:18:58 60° ENE 00:21:43 21° SSE
Geosat 4.3 00:14:28 10° NNE 00:19:31 71° NW 00:24:31 10° SW
Landsat 5 4.3 00:17:29 17° SE 00:20:11 39° ENE 00:24:01 10° N
Lacrosse 4 Rocket 1.7 00:17:42 10° SW 00:21:45 67° NW 00:25:54 10° NE
H-2A R/B 3.5 00:19:05 10° SSW 00:23:22 28° W 00:27:46 10° NNW
Cosmos 1943 Rocket 3.4 00:19:04 10° NW 00:23:53 31° WSW 00:27:52 14° SSW
Cosmos 1943 4.1 00:20:41 10° SW 00:26:12 50° NW 00:31:47 10° NNE
NOSS 3-3 (A) 4.4 00:20:41 10° NW 00:27:56 83° SW 00:34:49 14° SE
NOSS 3-3 (C) 4.4 00:20:48 10° NW 00:28:03 83° SW 00:34:58 14° SE
Cosmos 1689 Rocket 3.0 00:30:06 23° SE 00:31:46 45° ENE 00:34:54 10° N
Cosmos 2228 Rocket 4.0 00:28:39 10° N 00:32:50 39° ENE 00:35:46 17° SE
Cosmos 1850 Rocket 4.0 00:30:32 17° SSW 00:34:39 72° ESE 00:39:51 10° NNE
Meteor 1-24 Rocket 4.5 00:31:06 19° SSE 00:35:02 43° E 00:40:34 10° NNE
Cosmos 2026 Rocket 4.1 00:34:20 20° SSE 00:38:35 60° E 00:44:33 10° NNE
Cosmos 1656 Rocket 4.3 00:33:31 10° NW 00:38:55 45° WSW 00:42:37 19° S
Cosmos 1932 4.4 00:32:59 10° SSW 00:39:10 75° SE 00:45:26 10° NE
Cosmos 1733 3.4 00:35:47 10° NNW 00:39:39 66° W 00:41:50 24° S
Okean 3 Rocket 3.5 00:37:59 22° S 00:40:48 79° E 00:45:15 10° NNE
SL-23 DEB 4.2 00:38:56 10° SW 00:42:48 33° SSE 00:45:46 10° E
Cosmos 1627 Rocket 4.5 00:39:42 20° S 00:44:07 72° E 00:50:15 10° NNE
Cosmos 1607 4.1 00:40:55 15° SSW 00:46:01 56° SE 00:52:04 10° NE
Cosmos 1378 4.4 00:45:04 20° SE 00:46:46 29° E 00:50:06 10° NNE
Cosmos 468 Rocket 4.0 00:44:39 10° NNW 00:49:59 83° WSW 00:53:28 22° SSE
Meteor 2-5 Rocket 3.8 00:48:01 19° S 00:52:24 87° ESE 00:58:11 10° NNE
Cosmos 1140 Rocket 3.7 00:48:51 11° SW 00:53:55 71° WNW 00:59:11 10° NNE
CZ-2C R/B 4.2 00:49:45 10° NE 00:54:17 25° E 00:57:38 15° SE
Cosmos 1814 Rocket 4.0 00:51:08 10° NNW 00:56:25 83° WSW 00:59:57 22° SSE
COSMOS 2487 2.4 00:55:28 26° SSW 00:57:22 77° ESE 01:00:59 10° NNE
ISS -3.4 00:57:57 10° WSW 01:01:10 58° S 01:04:23 10° E
Meteor 2-1 Rocket 4.4 00:55:23 10° NNW 01:01:19 74° W 01:05:17 21° S
Cosmos 1470 4.1 00:59:00 10° NNW 01:02:26 30° W 01:04:40 17° SW
Cosmos 2322 Rocket 4.4 00:58:44 10° NNW 01:03:14 23° NNE 01:07:42 10° E
ALOS 2 2.7 01:01:02 25° S 01:03:34 70° WSW 01:07:59 10° NNW
NOSS 2 (F) 4.5 01:01:53 10° NW 01:04:41 84° NE 01:06:20 25° SE
SL-27 R/B 4.1 01:02:40 10° WSW 01:05:39 29° NW 01:08:40 10° N
Cosmos 1408 Rocket 3.6 01:07:27 25° S 01:10:01 74° E 01:14:30 10° NNE
Genesis I 3.2 01:06:51 10° NW 01:10:52 83° NE 01:13:43 18° SE
Cosmos 2369 3.7 01:05:21 10° NW 01:11:02 78° WSW 01:14:57 21° SSE
Cosmos 1553 Rocket 4.1 01:10:49 10° NNW 01:17:08 77° W 01:21:33 21° S
Cosmos 1818 3.8 01:11:52 10° NW 01:17:13 54° SW 01:20:32 22° SSE
Cosmos 1340 3.6 01:17:53 17° SW 01:20:28 42° WNW 01:24:07 10° N
ATLAS 3B R/B 3.5 01:13:37 10° WSW 01:21:10 60° NNW 01:28:25 10° NE
Cosmos 614 Rocket 4.3 01:18:17 13° SW 01:22:48 64° WNW 01:28:02 10° NNE
Helios 1A Rocket 3.0 01:19:31 10° NNE 01:23:34 62° ESE 01:25:40 27° S
Lacrosse 5 rocket 1.9 01:20:48 10° WNW 01:24:57 63° NNE 01:29:20 10° E
Cosmos 405 Rocket 2.7 01:24:02 29° S 01:25:51 67° E 01:29:37 10° NNE
NOSS 3-2 (A) 3.8 01:22:02 20° SSW 01:26:21 54° SE 01:32:59 10° NE
CZ-4B R/B 2.4 01:25:01 25° SSW 01:26:39 39° W 01:30:10 10° NNW
Cosmos 1908 4.0 01:23:12 10° N 01:26:55 43° ENE 01:29:16 20° SE
Cosmos 1151 Rocket 3.7 01:23:09 10° N 01:27:19 47° ENE 01:30:09 19° SE
Cosmos 1763 Rocket 3.5 01:25:49 10° NNW 01:31:11 78° WSW 01:34:40 22° SSE
Cosmos 2344 4.4 01:27:26 19° S 01:32:18 38° ESE 01:40:23 10° NE
Cosmos 2278 4.1 01:28:14 10° NW 01:33:41 50° WSW 01:37:03 23° S
Cosmos 1980 Rocket 2.9 01:28:32 10° NNW 01:34:03 53° NE 01:39:34 10° SE
Cosmos 540 Rocket 4.3 01:29:57 10° NNW 01:35:00 49° ENE 01:40:01 10° SE
Cosmos 2315 Rocket 4.3 01:29:43 10° N 01:36:03 64° ENE 01:40:58 17° SSE
Cosmos 1743 Rocket 3.7 01:34:25 25° S 01:36:53 69° E 01:41:20 10° NNE
COSMOS 2406 4.0 01:34:31 10° SW 01:40:04 50° NW 01:45:41 10° NNE
Cosmos 1437 Rocket 3.4 01:38:00 10° N 01:41:54 51° ENE 01:44:24 20° SE
S3M 4.4 01:37:50 10° NNW 01:43:52 51° W 01:48:02 20° SSW
Lacrosse 5 1.8 01:42:50 10° WNW 01:47:52 68° SSW 01:52:53 10° SE
Cosmos 1707 4.4 01:45:55 13° WSW 01:48:46 27° WNW 01:52:12 10° N
H-2A R/B 3.2 01:46:30 10° N 01:50:11 42° WNW 01:52:42 18° SW
Cosmos 1441 Rocket 4.4 01:48:17 20° SE 01:50:21 34° E 01:53:57 10° NNE
Cosmos 2266 Rocket 4.1 01:47:05 21° S 01:51:33 76° E 01:57:58 10° NNE
Cosmos 1766 Rocket 4.1 01:48:43 20° SW 01:51:35 53° WNW 01:56:01 10° N
Cosmos 1500 Rocket 3.6 01:52:07 25° S 01:54:31 71° E 01:58:51 10° NNE
Cosmos 1697 Rocket 2.7 01:48:59 10° NNW 01:54:42 84° WSW 01:59:19 16° SSE
Cosmos 1328 Rocket 4.0 01:51:00 10° NNW 01:55:13 48° W 01:57:33 24° SSW
Cosmos 2221 4.5 01:53:07 10° NW 01:56:08 19° W 01:58:36 12° WSW
COS B Rocket 4.4 01:54:44 10° NE 01:56:17 16° E 01:57:11 13° ESE
Cosmos 1867 4.0 01:54:30 23° S 01:57:39 47° ESE 02:02:55 10° NE
USA 238 DEB 4.1 01:51:33 10° WSW 01:58:37 67° NW 02:05:40 10° NE
USA 238 4.1 01:51:39 10° WSW 01:58:43 68° NW 02:05:46 10° NE
Cosmos 2082 Rocket 2.7 01:56:17 21° S 01:59:42 46° ESE 02:05:07 10° NE
Timation 2 Rocket 4.2 01:55:08 20° SSW 02:00:09 72° ESE 02:06:54 10° NE
Lacrosse 4 Rocket 4.1 01:58:19 10° WNW 02:01:15 19° NNW 02:04:15 10° NNE
CZ-4C R/B 2.3 01:57:09 18° SW 02:01:21 74° SE 02:07:40 10° NE
EROS-A1 4.1 02:02:10 41° SSE 02:02:55 81° ENE 02:05:29 10° NNW
Cosmos 1354 Rocket 4.3 02:00:31 22° S 02:03:48 56° ESE 02:09:00 10° NNE
USA 32 4.3 01:58:48 10° N 02:04:04 66° E 02:08:01 18° SSE
Cosmos 1689 Rocket 4.5 02:03:11 13° WSW 02:04:15 15° W 02:06:12 10° NW
Cosmos 371 Rocket 4.3 02:01:39 10° NNW 02:06:21 45° NE 02:10:59 10° SE
Cosmos 1515 Rocket 4.1 02:03:20 10° NNW 02:07:37 47° W 02:10:03 23° SSW
Cosmos 1833 Rocket 3.3 02:05:17 20° S 02:08:45 43° ESE 02:14:03 10° NE
Cosmos 1503 Rocket 4.3 02:06:53 22° S 02:10:16 60° ESE 02:15:31 10° NNE
Cosmos 841 Rocket 4.0 02:05:35 10° NW 02:10:33 44° WSW 02:13:35 22° SSW
Cosmos 2228 Rocket 4.4 02:07:08 10° NNW 02:10:55 28° W 02:13:15 18° SW
Cosmos 1726 3.6 02:07:48 10° N 02:11:11 33° ENE 02:14:20 11° SE
CZ-2C R/B 3.3 02:11:20 20° S 02:15:18 75° WSW 02:21:07 10° NNW
Cosmos 1674 2.8 02:16:20 25° S 02:18:20 68° E 02:22:05 10° NNE
Cosmos 2360 4.4 02:13:45 10° NNW 02:19:29 75° NE 02:25:12 10° SE
Landsat 4 4.2 02:18:46 15° SE 02:21:41 55° ENE 02:25:22 10° N
Cosmos 1656 4.2 02:20:42 10° NW 02:26:05 44° WSW 02:29:39 20° S
Aureole 1 Rocket 3.4 02:24:35 10° NNW 02:28:47 60° WSW 02:32:51 17° S
CENTAUR R/B 3.5 02:24:49 18° S 02:28:53 36° ESE 02:35:07 10° NE
Meteor 1-27 4.4 02:23:34 10° NNW 02:29:28 77° ENE 02:34:44 13° SSE
Iridium 2 4.1 02:28:41 21° SSE 02:31:03 57° E 02:34:49 10° NNE
PSLV R/B 4.5 02:29:09 23° SSW 02:31:27 45° W 02:35:29 10° NNW
NOSS 3-2 (C) 3.6 02:26:47 13° SW 02:32:34 87° NW 02:39:35 10° NE
CZ-2C R/B 2.9 02:29:30 10° NNE 02:35:04 68° WNW 02:39:10 18° SSW
SL-16 R/B 2.8 02:30:14 10° NNW 02:35:52 60° NE 02:41:29 10° SE
Cosmos 1328 3.9 02:34:41 22° S 02:37:11 70° E 02:41:10 10° NNE
ISS -3.3 02:34:15 10° W 02:37:27 51° SSW 02:40:38 10° ESE
Cosmos 1538 Rocket 4.1 02:32:20 10° NNW 02:37:34 76° ENE 02:42:49 10° SSE
Cosmos 2242 Rocket 3.9 02:35:14 10° N 02:39:39 63° ENE 02:43:32 13° SSE
ASTEX 1 3.4 02:34:38 10° N 02:39:40 86° E 02:43:15 19° S
Cosmos 405 3.3 02:39:08 10° NNW 02:42:39 53° W 02:44:35 24° SSW
Cosmos 1805 Rocket 3.8 02:42:29 19° S 02:45:34 67° E 02:50:01 10° NNE
Cosmos 2322 Rocket 2.4 02:42:35 10° NNW 02:48:16 74° NE 02:53:53 10° SE
ATLAS CENTAUR R/B 3.6 02:47:57 10° NW 02:52:28 34° NNE 02:56:44 10° E
Cosmos 1271 Rocket 3.8 02:49:31 10° N 02:53:11 42° ENE 02:56:47 10° SE
Cosmos 1707 Rocket 3.6 02:48:55 10° NNW 02:53:16 64° W 02:56:19 19° S
Cosmos 1633 Rocket 3.6 02:50:26 15° SSE 02:53:52 52° E 02:58:11 10° NNE
SL-23 DEB 3.2 02:51:53 10° W 02:55:08 61° S 02:58:21 10° E
Cosmos 332 Rocket 3.9 02:50:37 10° NNW 02:55:21 59° WSW 02:59:15 15° S
Cosmos 773 Rocket 4.3 02:53:06 10° NNW 02:58:15 68° ENE 03:03:22 10° SE
Cosmos 1666 Rocket 3.6 02:59:24 17° S 03:02:38 74° E 03:06:58 10° NNE
Cosmos 724 4.3 02:58:36 16° SW 03:03:21 84° SE 03:09:19 10° NE
Lacrosse 5 rocket 1.6 03:00:06 10° WNW 03:04:17 53° SW 03:08:38 10° SE
Cosmos 2058 2.9 03:03:23 19° SSW 03:06:21 80° WNW 03:10:33 10° N
SL-08 R/B 3.4 03:06:58 10° SSE 03:11:50 86° ENE 03:16:48 10° NNW
ATLAS 3B R/B 4.3 03:06:20 10° WNW 03:13:16 38° N 03:19:52 10° ENE
IRAS Rocket 4.4 03:08:35 10° NNE 03:14:06 68° ESE 03:18:54 14° S
Cosmos 2151 3.6 03:11:09 17° SW 03:14:12 44° WNW 03:18:18 10° N
ERS-2 2.7 03:11:09 10° NNE 03:14:48 51° ESE 03:17:48 14° S
Meteor 1-11 4.3 03:11:09 15° S 03:16:03 88° ESE 03:21:55 10° NNE
Cosmos 540 Rocket 4.3 03:11:52 10° NW 03:16:27 33° WSW 03:19:58 15° SSW
NOSS 3-2 (A) 4.3 03:11:00 10° WSW 03:17:19 56° NNW 03:24:18 10° NE
Cosmos 1300 3.4 03:13:47 10° NNW 03:17:23 38° W 03:19:53 17° SSW
Cosmos 1933 Rocket 4.4 03:13:43 10° SSE 03:17:51 46° E 03:22:05 10° NNE
Cosmos 1980 Rocket 2.9 03:12:48 10° NW 03:17:55 36° WSW 03:22:15 14° S
Cosmos 2360 Rocket 3.0 03:13:18 10° NNW 03:18:51 54° NE 03:24:21 10° SE
CZ-2D R/B 4.4 03:15:21 10° NE 03:18:54 18° E 03:22:28 10° SE
NPP 3.9 03:21:59 10° NNE 03:27:23 66° ESE 03:32:33 11° S
USA 161 2.2 03:26:27 10° SE 03:28:42 41° ENE 03:31:00 10° N
Meteor 1-4 Rocket 2.6 03:25:17 10° NNW 03:29:03 83° WSW 03:32:50 10° S
Lacrosse 5 3.1 03:26:28 10° W 03:30:08 20° SW 03:33:04 13° SSW
COS B Rocket 4.1 03:28:35 10° NW 03:30:11 16° W 03:31:06 14° WSW
Sich 1 3.2 03:30:31 15° SSW 03:34:09 66° WNW 03:38:36 10° N
Cosmos 2322 4.2 03:28:32 10° NNW 03:34:16 66° NE 03:39:58 10° SE
USA 215 3.9 03:28:46 10° ENE 03:34:57 43° SE 03:40:39 12° SSW
SL-16 R/B 3.2 03:29:09 10° SE 03:35:16 59° ENE 03:41:26 10° NNW
Cosmos 1697 Rocket 4.3 03:34:10 10° WNW 03:37:51 18° W 03:41:01 12° SW
Cosmos 1437 3.4 03:35:31 16° SW 03:38:01 46° WNW 03:41:16 10° N
Nadezhda 1 Rocket 4.3 03:33:05 10° NNW 03:39:03 52° W 03:44:50 10° SSW
Cosmos 1745 Rocket 4.2 03:33:26 13° SSW 03:39:13 69° WNW 03:45:33 10° N
Meteor 2-10 4.1 03:34:31 10° NNW 03:39:39 64° W 03:44:56 10° S
Cosmos 1867 4.3 03:35:59 10° WSW 03:41:19 50° NW 03:46:41 10° NE
Abrixas 3.5 03:40:50 15° SW 03:42:52 29° S 03:45:37 10° ESE
Cosmos 2082 Rocket 3.1 03:38:30 10° WSW 03:43:53 44° NW 03:49:20 10° NNE
Okean O Rocket 4.4 03:42:02 10° ENE 03:43:54 12° E 03:45:46 10° ESE
BREEZE-M DEB (TANK) 4.5 03:41:05 10° WSW 03:44:09 28° SSW 03:51:59 10° SE
Cosmos 1455 2.1 03:40:58 10° NNW 03:44:47 73° W 03:48:33 10° S
Cosmos 2112 Rocket 4.0 03:39:49 10° NNW 03:45:03 87° ENE 03:50:16 10° SSE
Cosmos 2344 4.1 03:38:06 10° WSW 03:46:05 74° NW 03:56:07 10° NE
Cosmos 1862 Rocket 3.7 03:41:57 10° NNW 03:46:25 66° W 03:50:50 10° S
Cosmos 1726 3.5 03:43:25 10° NW 03:46:28 25° W 03:49:00 13° SW
Cosmos 371 Rocket 4.1 03:42:20 10° NW 03:46:41 33° WSW 03:50:57 10° SSW
PSLV R/B 4.2 03:43:08 10° N 03:47:38 49° WNW 03:51:42 12° SW
CZ-4C R/B 3.5 03:44:48 10° W 03:50:22 44° NNW 03:56:43 10° NE
Cosmos 1709 Rocket 4.2 03:44:30 10° S 03:50:48 76° E 03:57:03 10° NNE
Cosmos 1833 Rocket 3.4 03:47:18 10° WSW 03:52:43 46° NW 03:58:09 10° NNE
Cosmos 2333 Rocket 4.5 03:48:38 10° NNW 03:53:37 30° NE 03:58:36 10° E
IRS-1C 4.3 03:52:22 10° NNE 03:57:46 79° ESE 04:03:06 10° SSW
ATLAS 5 CENTAUR R/B 3.5 03:56:39 10° S 04:00:42 26° ESE 04:05:01 10° ENE
Cosmos 304 Rocket 3.8 03:55:59 10° NNW 04:00:49 72° WSW 04:05:37 10° SSE
Cosmos 968 Rocket 3.5 03:59:21 10° SSW 04:04:23 79° WNW 04:09:36 10° NNE
Cosmos 2221 Rocket 3.8 03:59:55 10° N 04:04:26 81° ENE 04:08:58 10° SSE
COSMOS 2428 3.4 03:59:01 10° NNW 04:04:40 60° NE 04:10:17 10° SE
GENESIS II 4.4 04:02:51 10° NW 04:06:57 58° SW 04:10:58 10° SSE
AQUA 4.0 04:05:56 10° N 04:10:41 68° WNW 04:15:25 10° SSW
Cosmos 1869 3.7 04:07:00 10° NNW 04:10:49 46° W 04:14:38 10° SSW
USA 129 2.1 04:09:37 10° SE 04:10:53 38° ENE 04:12:18 10° N
Resurs 1-4 Rocket 3.1 04:07:09 10° NNE 04:12:16 45° E 04:17:21 10° S
ISS -2.0 04:10:58 10° W 04:13:27 20° SSW 04:15:56 10° SSE
Cosmos 1626 2.1 04:09:45 10° SSW 04:13:29 76° WNW 04:17:17 10° N
Cosmos 1869 Rocket 4.4 04:14:19 10° S 04:18:34 51° E 04:22:54 10° NNE
CENTAUR R/B 2.9 04:12:38 10° WSW 04:19:04 75° NW 04:26:25 10° NE
SL-16 R/B 3.0 04:14:45 10° NW 04:19:43 32° WSW 04:24:38 10° SSW
Spot 4 Rocket 4.1 04:15:25 10° NNE 04:20:36 89° ESE 04:25:46 10° SSW
Cosmos 2237 Rocket 4.0 04:19:00 10° NNW 04:24:17 38° NE 04:29:33 10° ESE
Cosmos 1703 4.3 04:22:20 10° SW 04:25:56 32° WNW 04:29:33 10° N
Cosmos 2237 4.4 04:21:23 10° NNW 04:27:11 83° ENE 04:32:56 10° SE
Cosmos 1271 Rocket 4.2 04:26:08 10° NW 04:29:01 21° W 04:31:52 10° SW
CZ-2C R/B 4.2 04:26:51 10° SSE 04:31:19 67° ENE 04:35:55 10° N
Cosmos 2322 Rocket 3.3 04:27:21 10° NW 04:31:48 25° WSW 04:36:13 10° SSW
ATLAS CENTAUR R/B 1.6 04:27:12 10° NW 04:32:04 76° SW 04:36:33 10° SE
